Location: Most
(50.5133°N, 13.6207°E)
Time: 04:42:18
(UTC+02:00)

ISS - Pass Details

Date: 01 October 2021
Orbit: 417 x 423 km, 51.6° (Epoch: 15 October)

Event Time Altitude Azimuth Distance (km) Brightness Sun altitude
Rises 20:11:21 0° 286° (WNW) 2,367 2.0 -14.7°
Reaches altitude 10° 20:13:29 10° 281° (W) 1,502 0.5 -15.1°
Maximum altitude 20:16:44 47° 206° (SSW) 567 -3.1 -15.6°
Enters shadow 20:18:07 28° 149° (SSE) 819 -2.7 -15.8°
